Regional Weather Roundup
Issued by NWS

Home | Current Version | Previous Version | Text Only | Print | Product List | Glossary On
Versions: 1 2 3 4 5 6 7 8 9 10 11 12 13 14 15 16 17 18 19 20 21 22 23 24 25 26 27 28 29 30 31 32 33 34 35 36 37 38 39 40 41 42 43 44 45 46 47 48 49 50
000
ASUS43 KMPX 140501
RWRMN
WEATHER ROUNDUP FOR MINNESOTA
NATIONAL WEATHER SERVICE TWIN CITIES/CHANHASSEN MN
1100 PM CST WED DEC 13 2017


NOTE: "FAIR" INDICATES FEW OR NO CLOUDS BELOW 12,000 FEET WITH NO
SIGNIFICANT WEATHER AND/OR OBSTRUCTIONS TO VISIBILITY. N/A MEANS
CURRENT SKY AND/OR WEATHER CONDITIONS ARE NOT AVAILABLE.

MNZ060>063-068>070-140600-
   Twin Cities Metro

CITY           SKY/WX    TMP DP  RH WIND       PRES   REMARKS
TWIN CITIES    PTCLDY    18  15  88 NW3       29.95R
ST PAUL        PTCLDY    17  13  84 W5        29.97R WCI  10
CRYSTAL        CLOUDY    20  13  74 NW3       29.94R
BLAINE         CLOUDY    21  18  86 N6        29.94R WCI  14
LAKEVILLE      CLEAR     16  12  86 N5        29.94R WCI   9
EDEN PRAIRIE   PTCLDY    18  12  77 N6        29.94R WCI  10
SOUTH ST PAUL  CLEAR     16  13  87 CALM      29.95R
LAKE ELMO      FAIR      12  10  92 CALM      29.94S
$$
MNZ001>005-007-008-013>017-022>024-027-028-140600-
   Northwest Minnesota

CITY           SKY/WX    TMP DP  RH WIND       PRES   REMARKS
BEMIDJI        FLURRIES  12   9  88 N3        29.93F
HALLOCK        LGT SNOW  16  12  86 CALM      29.99R
ROSEAU         CLOUDY    10   7  85 CALM      29.95F
WARROAD        CLOUDY     1  -2  85 CALM      29.94F
CROOKSTON      FLURRIES  14  10  85 NE6       30.00R WCI   5
FOSSTON        FLURRIES  10   9  92 CALM      29.96F
DETROIT LAKES  CLOUDY    18  14  86 NW6       29.96F WCI   9
MOORHEAD       MIX PCPN  18  12  79 CALM      30.00F
PARK RAPIDS    CLOUDY    14  10  84 NW5       29.94R WCI   6
MAHNOMEN       FLURRIES  13  10  86 W6        29.96F WCI   4
$$
MNZ006-009>011-018-025>026-140600-
   North Central Minnesota

CITY           SKY/WX    TMP DP  RH WIND       PRES   REMARKS
BAUDETTE       CLOUDY     4   2  91 CALM      29.93F
FLAG ISLAND    CLOUDY     5   1  85 CALM      29.92F
INTL FALLS     CLOUDY    14   9  80 W3        29.91F
WASKISH        FLURRIES  12  10  92 CALM      29.94S
BIG FORK       FLURRIES  16  12  86 CALM      29.92R
LONGVILLE      CLOUDY    16  12  86 CALM      29.94R
GRAND RAPIDS   FLURRIES  16  12  84 CALM      29.94R
CRANE LAKE     LGT SNOW  12  10  92 CALM      29.94S
ORR            CLOUDY    14  10  85 CALM      29.89S
COOK           FLURRIES  14  10  85 W5        29.91S WCI   6
WALKER         FLURRIES  13   9  87 NW5       29.94R WCI   5
$$
MNZ012-019>021-037-140600-
   Northeast Minnesota

CITY           SKY/WX    TMP DP  RH WIND       PRES   REMARKS
DULUTH         PTCLDY    11   9  92 NW5       29.88S WCI   3
ELY            FLURRIES   9   7  92 W3        29.90R
HIBBING        CLOUDY    15  11  83 NW3       29.90S
EVELETH        FLURRIES  13   7  79 CALM      29.92R
DULUTH HARBOR  CLEAR     16  12  86 NW6       29.96R WCI   7
TWO HARBORS    CLEAR      3  -2  78 CALM      29.89S
GRAND MARAIS     N/A      6   0  76 W3        29.95R
G MARAIS ARPRT CLEAR      0  -6  78 NW12      29.82S WCI -18
$$
MNZ029>031-032-039>041-046>048-054>057-064-140600-
   West Central Minnesota

CITY           SKY/WX    TMP DP  RH WIND       PRES   REMARKS
FERGUS FALLS   CLOUDY    18  14  86 N3        30.01R
WHEATON        CLOUDY    19  14  79 N7        30.02R WCI  10
MORRIS         CLOUDY    19  16  86 NW8       29.97R WCI   9
ALEXANDRIA     CLOUDY    18  13  80 NE5       29.96R WCI  11
ELBOW LAKE     CLOUDY    19  16  87 N7        29.98R WCI  10
WADENA         CLOUDY    14  10  85 CALM      29.95R
GLENWOOD       PTCLDY    18  14  86 N6        29.96R WCI   9
APPLETON       CLOUDY    21  16  79 NW10      29.99R WCI  10
BENSON         CLOUDY    21  16  79 N8        29.99R WCI  12
ORTONVILLE     CLOUDY    21  16  79 N14       29.99R WCI   8
MADISON        CLOUDY    25  19  80 N13       30.00R WCI  13
WILLMAR        FAIR      19  16  86 N6        29.98R WCI  11
$$
MNZ033>034-036-042>043-049>051-058-059-140600-
   Central Minnesota

CITY           SKY/WX    TMP DP  RH WIND       PRES   REMARKS
ST CLOUD       CLOUDY    11   9  92 NW7       29.95R WCI   0
SAUK CENTRE    CLOUDY    15  11  85 NW5       29.96R WCI   7
PAYNESVILLE    CLEAR     13  11  92 NW3       29.96S
AITKIN         FLURRIES  16  12  86 NW3       29.92R
PINE RIVER     FLURRIES  12  10  92 NW3       29.97S
BRAINERD       CLOUDY    17  12  80 N7        29.94R WCI   8
STAPLES        CLOUDY    14  10  85 CALM      29.95R
LONG PRAIRIE   CLOUDY    18  12  79 W3        29.95R
LITTLE FALLS   CLOUDY     9   3  78 CALM      29.97R
LITCHFIELD     CLEAR     16  12  86 NW5       29.97R WCI   9
BUFFALO        CLOUDY    17  13  83 W5        29.96R WCI  10
MAPLE LAKE     CLEAR     16  13  89 NW5       29.97R WCI   9
HUTCHINSON     CLEAR     16  13  89 W5        29.98R WCI   9
$$
MNZ037-044-045-052-053-140600-
   East Central Minnesota

CITY           SKY/WX    TMP DP  RH WIND       PRES   REMARKS
PRINCETON      PTCLDY    14  10  85 CALM      29.95R
MORA           CLEAR     10   7  85 N3        29.95R
CAMBRIDGE      PTCLDY    16  10  79 NW3       29.95R
RUSH CITY      CLOUDY    18  15  87 CALM      29.94R
MOOSE LAKE     CLOUDY    19  14  79 NE3       29.91S
HINCKLEY       CLOUDY    19  16  86 CALM      29.93R
CLOQUET        CLEAR     12  10  92 NW5       29.90S WCI   4
MCGREGOR       CLOUDY    19  16  86 CALM      29.92S
$$
MNZ071>073-080-081-089-090-097-098-140600-
   Southwest Minnesota

CITY           SKY/WX    TMP DP  RH WIND       PRES   REMARKS
MONTEVIDEO     CLOUDY    21  18  86 N7        29.99R WCI  13
GRANITE FALLS  CLOUDY    25  18  74 N8        30.00R WCI  16
CANBY          CLOUDY    24  20  85 N12G17    30.00R WCI  13
MARSHALL       CLOUDY    22  17  81 N16       29.99R WCI   8
REDWOOD FALLS  CLOUDY    23  15  71 N3        29.98R
OLIVIA         CLOUDY    18  14  86 NE6       29.98R WCI   9
PIPESTONE      CLOUDY    25  21  86 N8        29.95R WCI  16
WINDOM           N/A     25  10  54 N9        29.95R WCI  15
WORTHINGTON    CLOUDY    23  20  88 N17       29.96R WCI   9
JACKSON        CLOUDY    25  19  80 MISG      29.95R
SLAYTON        CLOUDY    24  22  92 N14       29.95R WCI  11
$$
MNZ065>067-074>077-082>085-091>093-140600-
   South Central Minnesota

CITY           SKY/WX    TMP DP  RH WIND       PRES   REMARKS
MANKATO        CLEAR     18  14  84 NW7       29.96R WCI   9
NEW ULM        CLEAR     19  12  73 N9        29.98R WCI   9
ST JAMES       CLOUDY    21  18  86 NW8       29.98R WCI  12
FAIRMONT       CLOUDY    23  18  81 N13       29.96R WCI  11
GLENCOE        CLEAR     17  15  92 NW6       29.96R WCI   8
FARIBAULT      CLEAR     18  14  86 N3        29.93S
OWATONNA       CLEAR     18  14  86 N3        29.92R
WASECA         CLEAR     18  14  86 NW6       29.96R WCI   9
ALBERT LEA     PTCLDY    19  14  79 CALM      29.91R
$$
MNZ078>079-086>088-094>096-140600-
   Southeast Minnesota

CITY           SKY/WX    TMP DP  RH WIND       PRES   REMARKS
ROCHESTER      PTCLDY    17  13  84 N10       29.91R WCI   5
RED WING       PTCLDY    18  10  73 CALM      29.94R
STANTON        PTCLDY    16  13  87 CALM      29.94R
DODGE CENTER   CLEAR     16  12  86 N6        29.91R WCI   7
WINONA         PTCLDY    19  12  73 CALM      29.94R
AUSTIN         CLEAR     19  16  86 N8        29.90R WCI   9
PRESTON        CLEAR     17  12  82 N7        29.90R WCI   7
$$
ABBREVIATIONS USED IN REMARKS
   TC - TEMPERATURES IN CELSIUS
  WCI - WIND CHILL INDEX
   HX - HEAT INDEX
  VSB - VISIBILITY
$$



USA.gov is the U.S. government's official web portal to all federal, state and local government web resources and services.